Location: Borz?cin
(51.1714°N, 19.6030°E)
Time: 21:39:19
(UTC+00:00)

Timation 1 Rocket - Pass Details

Date: 19 May 2025
Orbit: 895 x 909 km, 70.0° (Epoch: 16 June)

Event Time Altitude Azimuth Distance (km) Brightness Sun altitude
Exits shadow 21:47:15 18° 212° (SSW) 2,053 5.8 -18.0°
Maximum altitude 21:51:49 87° 300° (WNW) 912 4.3 -18.1°
Drops below altitude 10° 21:57:51 10° 32° (NNE) 2,598 7.4 -18.3°
Sets 22:00:21 0° 33° (NNE) 3,545 8.2 -18.4°
